Probability
19 19 19 13 16 16 16 10 6 10 6 6 6 3 0 3 3 3 3 3 3 3 3 3 3 3 3 0 0 3 0 0 0 0 0 0 0 0 0 0 0 3 3
16 13 16 19 10 6 6 13 13 3 0 0 3 3 0 0 3 3 0 0 0 0 0 0 0 0 3 0 0 0 0 0 0 0 0 0 0 0 0 0 0 0 0
10 10 10 6 3 3 3 3 0 0 0 0 0 0 0 0 0 0 3 0 0 0 0 0 0 0 0 0 0 0 0 0 3 0 0 0 0 0 0 0 0 0 0
10 10 10 6 3 0 3 0 0 0 0 0 0 0 0 0 0 0 3 0 3 0 0 0 0 0 0 0 0 3 3 0 3 3 3 3 0 0 0 0 0 0 0
10 10 10 10 10 6 6 0 3 0 0 0 0 0 0 0 0 0 0 0 0 0 3 3 3 0 0 0 0 3 3 3 0 0 3 3 0 0 3 6 3 3 0
10 10 10 3 3 3 3 0 0 0 0 0 0 0 0 0 0 0 0 0 0 0 3 3 0 0 0 0 0 0 0 0 0 0 3 3 3 0 3 3 3 6 6
10 10 6 3 0 0 0 0 0 0 0 0 0 0 0 0 0 0 0 0 0 0 3 3 0 0 0 0 0 0 0 0 0 0 3 3 3 0 3 3 3 3 3
3 6 6 3 0 0 0 0 3 0 0 0 0 0 0 0 0 0 0 0 0 0 3 3 3 3 0 0 0 0 0 0 0 0 0 0 0 6 3 3 3 0 0
6 6 6 0 0 0 0 3 3 3 3 3 0 0 0 0 0 0 0 0 0 0 0 0 3 0 0 0 0 0 0 0 0 0 0 0 0 0 0 0 0 3 0
6 6 3 3 0 0 0 3 3 6 3 0 0 0 0 0 0 0 0 0 0 0 0 0 0 0 0 0 0 0 0 0 0 0 0 0 0 0 0 0 0 0 0
3 3 3 3 3 3 0 0 0 0 0 0 0 0 0 0 0 0 0 0 0 0 0 0 0 0 0 0 0 0 0 0 0 0 0 0 0 3 0 0 0 0 0
3 0 0 3 3 0 0 0 0 0 3 3 0 0 0 0 0 0 0 0 0 0 0 0 0 0 0 0 0 0 0 0 0 0 0 0 3 3 3 0 0 0 0
0 0 0 0 3 3 3 0 0 3 3 3 3 0 0 0 0 0 0 0 0 0 0 0 0 0 0 0 0 0 0 0 0 0 0 0 0 0 0 3 3 3 6
0 0 0 0 0 3 0 0 0 3 3 0 0 0 0 0 0 0 0 0 0 0 0 0 0 0 0 0 0 0 0 0 0 0 0 0 0 0 0 0 0 3 3
0 0 0 0 0 3 3 0 0 0 0 0 0 0 0 0 0 0 0 0 0 0 0 0 0 0 0 0 0 0 0 0 0 0 0 0 0 0 6 3 3 0 0
0 0 0 0 0 0 3 3 0 0 0 0 0 0 0 0 0 0 0 0 0 0 0 0 0 0 0 0 0 0 0 0 0 3 3 3 6 3 3 0 3 0 0
0 0 0 0 0 0 0 0 0 0 0 0 0 0 0 0 0 0 0 0 0 0 0 0 0 0 0 0 0 0 0 0 0 0 0 3 3 0 0 0 0 0 0
0 0 0 0 0 0 0 0 3 0 0 0 0 0 0 0 0 0 0 0 0 0 0 0 0 0 0 0 0 0 0 0 0 0 0 0 0 0 0 0 0 0 0
0 0 0 0 0 0 0 0 0 0 0 0 0 0 0 0 0 0 0 0 0 0 0 0 0 0 0 0 0 0 0 0 0 0 0 0 0 0 0 0 0 0 0
0 0 0 0 0 0 0 0 0 0 0 0 0 0 0 0 0 0 0 0 0 0 0 0 0 0 0 0 0 0 0 0 0 0 0 0 0 0 0 0 0 0 0
0 0 0 0 0 0 0 0 0 0 0 0 0 0 0 0 0 0 0 0 0 0 0 0 0 0 0 0 0 0 0 0 0 0 0 0 0 0 0 0 0 0 0
0 0 0 0 0 0 0 0 0 0 0 0 0 0 0 0 0 0 0 0 0 0 0 0 0 0 0 3 0 0 0 0 0 0 0 0 0 0 0 0 0 0 0
3 0 0 0 0 0 0 0 0 0 0 0 0 0 0 0 0 0 0 0 0 0 0 0 0 0 0 0 3 0 3 3 0 0 0 0 0 0 0 0 0 0 0
0 0 0 0 0 0 0 0 0 0 0 0 0 0 0 0 0 0 0 0 0 0 0 0 0 0 0 0 0 0 0 0 0 0 0 0 0 0 0 0 0 0 0
0 0 0 0 0 0 0 0 0 0 0 0 0 0 0 0 0 0 0 0 0 0 0 0 0 0 0 0 0 0 0 0 0 0 0 0 0 0 0 0 0 0 0
0 0 0 0 0 0 0 0 0 0 0 0 0 0 0 0 0 0 0 0 0 0 0 0 0 0 0 0 0 0 0 0 0 0 0 0 0 0 0 0 0 0 0
Height
5784 5781 5778 5775 5772 5769 5766 5762 5759 5755 5751 5747 5744 5740 5737 5734 5731 5728 5725 5722 5720 5718 5716 5714 5713 5712 5710 5708 5707 5706 5705 5704 5704 5704 5704 5703 5703 5703 5703 5703 5703 5704 5705
5780 5777 5774 5771 5768 5765 5761 5758 5754 5751 5747 5743 5739 5735 5732 5729 5726 5723 5721 5718 5715 5713 5712 5710 5708 5707 5705 5703 5702 5701 5700 5699 5699 5698 5698 5698 5698 5698 5698 5698 5698 5698 5699
5775 5772 5770 5767 5764 5761 5757 5754 5750 5747 5743 5739 5735 5732 5729 5726 5723 5720 5717 5714 5711 5709 5707 5705 5704 5702 5700 5699 5697 5696 5695 5694 5694 5693 5693 5693 5692 5692 5692 5692 5692 5692 5693
5771 5768 5766 5763 5760 5757 5754 5750 5747 5743 5740 5736 5732 5729 5725 5722 5719 5716 5713 5710 5708 5705 5703 5701 5699 5697 5695 5694 5693 5692 5690 5689 5688 5688 5687 5687 5687 5686 5686 5687 5687 5687 5687
5766 5764 5761 5759 5756 5754 5751 5747 5743 5740 5737 5733 5729 5726 5722 5719 5716 5713 5710 5707 5704 5702 5699 5697 5695 5693 5691 5690 5688 5687 5686 5684 5683 5683 5682 5682 5681 5681 5681 5681 5681 5681 5681
5762 5760 5758 5755 5753 5750 5747 5744 5741 5737 5734 5730 5726 5723 5719 5716 5713 5710 5707 5704 5701 5698 5696 5693 5691 5690 5688 5686 5684 5683 5681 5680 5679 5678 5677 5677 5676 5676 5676 5675 5676 5676 5676
5757 5755 5754 5752 5749 5747 5744 5741 5738 5734 5731 5727 5724 5720 5717 5713 5710 5707 5703 5700 5698 5695 5693 5691 5688 5686 5685 5683 5681 5679 5677 5676 5675 5673 5673 5672 5672 5671 5671 5671 5670 5670 5671
5753 5751 5749 5748 5746 5743 5740 5738 5734 5731 5728 5725 5721 5718 5714 5710 5707 5703 5700 5697 5695 5693 5690 5688 5686 5684 5682 5680 5678 5676 5674 5672 5671 5669 5668 5667 5667 5667 5666 5666 5666 5666 5666
5748 5747 5745 5744 5742 5740 5737 5734 5731 5728 5725 5722 5718 5715 5711 5707 5704 5701 5698 5695 5693 5690 5688 5686 5684 5682 5679 5677 5675 5673 5671 5669 5667 5666 5664 5663 5663 5662 5662 5661 5661 5661 5661
5744 5742 5741 5740 5738 5736 5734 5731 5728 5725 5722 5719 5716 5712 5708 5705 5701 5698 5696 5693 5691 5689 5686 5684 5681 5679 5676 5674 5672 5669 5667 5665 5664 5662 5661 5660 5659 5658 5657 5656 5656 5656 5656
5739 5738 5736 5735 5734 5732 5730 5728 5725 5723 5720 5716 5713 5710 5706 5703 5699 5696 5694 5691 5689 5686 5684 5681 5678 5676 5673 5671 5668 5666 5664 5662 5660 5658 5657 5655 5654 5653 5652 5651 5651 5650 5650
5735 5734 5733 5731 5730 5728 5727 5725 5723 5720 5717 5714 5711 5708 5704 5701 5698 5695 5692 5689 5686 5684 5681 5679 5676 5673 5670 5668 5665 5663 5660 5658 5656 5654 5652 5651 5649 5648 5647 5646 5645 5645 5644
5731 5730 5729 5728 5727 5725 5724 5722 5720 5717 5715 5712 5709 5706 5703 5699 5696 5693 5690 5687 5684 5681 5678 5676 5673 5670 5667 5665 5662 5659 5656 5654 5651 5649 5648 5646 5645 5643 5642 5641 5640 5639 5638
5727 5727 5726 5725 5724 5723 5721 5720 5717 5715 5713 5710 5707 5704 5701 5698 5694 5691 5688 5685 5681 5678 5676 5673 5670 5667 5664 5661 5658 5655 5652 5649 5647 5645 5643 5641 5639 5637 5636 5635 5633 5632 5631
5725 5724 5723 5723 5722 5721 5719 5717 5715 5713 5711 5708 5705 5702 5699 5696 5692 5689 5686 5682 5679 5676 5673 5670 5667 5664 5661 5658 5654 5651 5648 5645 5642 5640 5638 5636 5634 5632 5630 5628 5627 5626 5625
5722 5721 5721 5720 5720 5719 5717 5715 5713 5711 5709 5706 5703 5700 5697 5694 5690 5687 5684 5680 5677 5674 5671 5667 5664 5661 5658 5654 5651 5648 5644 5641 5638 5635 5632 5630 5628 5626 5624 5622 5621 5619 5618
5720 5719 5719 5718 5718 5716 5715 5713 5711 5709 5706 5704 5701 5698 5695 5692 5688 5685 5682 5679 5675 5672 5669 5665 5662 5658 5654 5651 5648 5644 5640 5637 5634 5631 5628 5625 5622 5620 5618 5616 5614 5613 5611
5718 5718 5717 5716 5715 5714 5713 5711 5709 5706 5704 5702 5699 5696 5693 5690 5686 5683 5680 5677 5673 5669 5666 5662 5659 5655 5651 5647 5644 5640 5636 5632 5629 5626 5623 5620 5617 5614 5612 5610 5608 5606 5604
5716 5716 5715 5715 5713 5712 5710 5708 5706 5704 5702 5699 5697 5694 5691 5688 5684 5681 5677 5674 5671 5667 5663 5659 5655 5652 5648 5643 5639 5635 5632 5628 5624 5621 5618 5615 5612 5609 5606 5604 5601 5599 5597
5715 5714 5714 5713 5711 5710 5708 5706 5704 5702 5700 5697 5694 5692 5689 5685 5682 5678 5675 5671 5668 5664 5660 5656 5652 5648 5643 5639 5635 5631 5627 5623 5620 5616 5612 5609 5606 5603 5600 5597 5594 5592 5590
5714 5713 5712 5711 5710 5708 5706 5704 5702 5700 5698 5695 5692 5689 5686 5683 5679 5676 5672 5669 5665 5661 5657 5653 5648 5644 5639 5635 5631 5627 5623 5619 5615 5611 5607 5603 5600 5597 5593 5590 5588 5585 5583
5713 5711 5710 5709 5708 5706 5705 5703 5701 5698 5696 5693 5690 5687 5684 5680 5677 5673 5669 5665 5662 5658 5653 5649 5645 5640 5636 5631 5627 5623 5618 5614 5610 5606 5602 5598 5594 5591 5587 5584 5581 5579 5576
5711 5710 5709 5708 5706 5705 5703 5701 5699 5696 5693 5690 5687 5684 5681 5678 5674 5670 5666 5662 5658 5654 5650 5645 5641 5636 5631 5627 5622 5618 5614 5609 5605 5600 5596 5592 5589 5585 5582 5578 5575 5573 5570
5710 5709 5708 5706 5705 5704 5702 5699 5697 5694 5691 5688 5685 5682 5678 5675 5671 5667 5663 5659 5655 5651 5646 5641 5637 5632 5627 5622 5618 5613 5609 5604 5600 5595 5591 5587 5583 5579 5576 5572 5569 5566 5563
5709 5707 5706 5705 5704 5702 5700 5698 5695 5692 5689 5686 5683 5679 5676 5672 5669 5665 5660 5656 5652 5648 5643 5638 5633 5628 5623 5618 5613 5608 5604 5599 5595 5590 5586 5581 5577 5573 5569 5566 5562 5559 5556
5707 5706 5705 5703 5702 5700 5698 5696 5693 5690 5687 5684 5680 5677 5674 5670 5666 5662 5658 5653 5649 5644 5639 5634 5628 5623 5618 5613 5609 5604 5599 5594 5589 5584 5580 5575 5571 5567 5562 5558 5555 5551 5548
Wind_Speed
20 21 21 21 20 20 20 20 20 21 21 22 22 21 21 21 21 21 20 20 19 19 19 19 19 20 20 20 20 19 19 20 20 20 20 21 21 21 21 23 23 24 25
19 19 19 19 19 19 19 19 19 20 21 21 20 20 20 20 19 19 19 19 19 19 19 19 19 19 19 19 19 19 18 19 19 19 19 20 20 20 20 21 21 23 23
19 18 18 19 19 19 18 18 19 20 20 20 19 19 19 18 19 19 19 19 18 18 18 18 18 18 18 18 18 18 18 18 18 18 18 19 20 20 20 20 21 21 22
18 17 18 18 18 18 18 18 19 19 19 19 19 18 18 18 18 18 18 19 18 18 18 17 18 17 17 17 17 18 18 18 17 18 18 19 20 20 20 20 21 20 21
18 17 18 17 17 18 18 19 19 18 19 18 18 18 18 18 17 17 17 18 17 17 17 17 16 16 16 16 16 17 17 17 17 18 18 18 18 18 19 20 20 20 20
18 18 18 18 18 18 19 19 19 18 18 19 18 18 18 18 18 17 17 16 16 16 16 15 15 15 15 15 15 15 16 16 16 16 17 17 17 17 18 18 19 19 20
17 17 17 18 18 18 18 19 19 18 18 18 18 18 18 18 18 18 17 16 15 14 14 13 13 13 13 13 13 14 14 14 14 15 15 16 16 16 17 17 18 18 18
17 17 17 18 18 18 18 18 18 18 18 18 18 19 19 18 17 16 15 14 13 13 12 12 12 12 12 12 12 13 13 14 14 13 14 14 15 15 15 16 16 17 17
16 16 17 16 16 17 17 18 18 18 18 18 18 18 18 17 17 16 14 13 12 12 12 12 12 12 12 13 13 13 13 14 14 14 14 14 15 16 17 17 17 17 17
15 15 16 16 16 16 16 17 17 17 17 17 17 17 16 16 15 14 13 12 12 12 12 12 13 13 13 13 13 13 13 13 14 14 14 14 15 16 17 17 17 16 17
14 14 14 15 14 14 14 14 15 16 16 16 15 15 15 15 14 13 13 12 12 12 13 12 13 13 14 14 14 14 14 14 14 14 15 16 15 15 16 16 17 17 18
11 11 12 13 12 11 12 13 13 14 14 14 15 15 15 15 15 14 14 13 12 12 13 13 14 15 15 15 15 15 15 15 15 15 15 15 15 15 16 16 17 18 19
10 10 11 11 10 10 10 12 12 13 13 13 14 13 14 15 15 15 14 14 14 14 15 15 15 15 15 16 16 16 16 16 16 16 15 15 15 15 16 16 17 18 19
9 9 9 9 9 9 9 10 11 12 12 13 13 14 14 15 15 15 15 14 14 15 15 15 16 17 17 18 18 18 19 18 18 17 17 17 16 16 17 17 18 18 19
7 8 7 8 8 8 9 10 11 12 13 13 14 14 15 15 15 15 15 15 15 15 16 16 16 17 17 17 18 18 18 18 18 18 18 18 18 18 18 18 18 19 20
6 6 6 7 7 8 9 10 11 12 12 13 13 14 15 15 15 16 16 16 16 16 16 16 17 17 18 18 18 19 19 19 19 18 18 18 18 18 18 18 19 20 21
5 5 4 5 7 7 9 10 11 11 12 13 14 14 15 16 15 15 15 16 16 17 17 18 18 18 19 19 19 19 20 20 19 19 18 18 19 19 19 19 19 20 21
5 4 4 6 7 8 9 10 11 11 12 12 13 14 15 16 16 16 17 17 18 18 19 19 20 19 20 20 20 20 20 21 20 19 19 19 18 18 19 19 19 19 20
4 4 5 5 7 8 9 10 11 12 12 13 13 14 15 15 16 17 17 18 18 19 20 21 21 21 21 22 22 21 21 21 20 20 19 19 19 19 19 19 20 20 20
4 5 5 6 7 8 9 10 11 12 13 13 14 14 15 16 17 18 18 19 19 20 21 22 22 22 22 23 22 22 21 21 21 20 20 20 21 21 20 20 21 21 20
4 5 5 6 7 8 9 10 12 13 13 14 14 15 16 17 18 18 19 20 21 21 22 23 23 23 23 23 23 22 22 22 21 21 21 20 20 21 21 21 20 20 20
5 5 6 7 7 8 10 11 12 13 14 14 15 16 17 17 18 19 20 21 22 22 23 23 23 23 23 23 23 23 23 23 23 22 22 21 20 20 21 21 21 21 21
5 6 6 7 8 9 10 11 12 13 14 15 16 17 17 18 18 19 20 21 22 23 24 24 24 23 23 23 23 23 23 23 23 23 23 22 22 21 22 22 21 21 21
5 6 6 7 8 9 10 11 13 14 15 16 16 17 17 18 18 19 20 21 23 24 25 25 25 24 24 24 24 24 24 24 24 23 23 23 23 23 22 22 22 22 22
6 6 7 8 9 10 11 12 13 14 15 16 17 17 17 18 19 20 22 23 24 25 26 26 25 25 26 26 26 25 25 25 25 25 25 25 25 24 23 23 23 23 23
5 6 7 8 9 10 11 12 13 15 16 17 17 18 19 19 20 21 22 23 25 26 27 27 26 26 26 26 26 26 26 26 26 26 26 25 26 25 25 24 24 24 24
Wind_Direction
301 301 303 305 305 306 308 312 313 312 310 307 307 305 303 303 304 303 303 302 301 300 297 294 293 293 292 289 286 285 284 280 275 273 269 267 267 267 265 262 259 255 253
300 303 306 307 306 309 312 314 315 314 315 313 312 312 309 308 308 308 306 306 305 303 300 297 295 294 292 288 286 286 285 283 278 275 270 267 267 268 267 264 262 258 254
300 304 308 308 308 311 313 316 317 318 318 318 317 317 315 313 311 310 310 310 308 305 301 299 297 296 294 290 288 287 287 283 278 276 273 271 270 271 269 266 263 260 256
299 302 307 310 311 313 315 317 319 321 321 322 324 321 318 317 314 312 311 310 309 306 302 299 299 298 297 292 289 289 288 284 280 277 274 273 271 270 269 266 265 262 259
299 302 306 310 313 314 316 318 321 323 325 324 323 322 322 321 319 316 314 311 309 308 305 302 300 299 297 295 292 291 289 285 282 277 275 274 273 272 271 269 266 264 262
297 301 306 309 312 315 318 319 320 322 325 325 324 324 323 322 320 319 317 314 311 310 307 306 303 301 299 296 293 291 289 286 283 278 274 273 274 273 272 272 269 266 262
296 300 302 305 309 313 317 319 323 325 324 324 325 324 323 321 321 319 316 316 318 317 314 312 310 308 306 304 301 297 293 290 288 283 278 275 273 274 274 271 269 265 264
295 297 300 301 307 313 316 320 323 325 324 324 323 324 324 324 325 324 321 321 320 319 315 313 316 317 317 315 312 305 300 297 293 289 284 281 276 274 274 271 271 269 268
293 297 301 303 307 311 316 319 322 324 325 326 326 326 327 328 327 328 328 328 327 321 318 317 316 315 314 312 310 307 305 300 296 292 289 284 280 276 274 273 272 271 270
292 296 299 303 306 308 314 318 323 326 327 327 328 330 332 332 331 330 329 327 326 326 325 321 320 317 316 313 311 309 308 305 299 296 292 289 285 281 278 277 276 272 270
291 295 299 305 306 309 313 319 323 326 328 329 332 336 336 337 337 336 335 333 329 326 325 322 319 317 315 314 312 310 307 306 304 299 296 294 291 286 283 282 279 276 272
291 295 302 308 309 313 318 322 325 328 329 332 333 335 338 341 340 338 337 334 330 326 326 325 323 321 320 318 316 315 312 308 305 303 300 298 294 289 288 285 280 279 275
293 293 301 306 313 321 324 325 326 328 333 337 337 337 338 340 342 340 335 333 330 326 325 325 324 323 321 320 318 316 315 313 310 307 303 300 297 293 291 288 283 281 279
294 295 304 311 317 322 327 332 336 338 337 339 343 342 342 342 342 342 340 335 332 331 330 328 326 325 322 323 323 321 321 320 317 311 305 301 298 294 291 289 286 284 282
300 302 308 318 324 331 336 337 337 339 340 340 340 342 342 343 344 345 344 343 340 336 333 332 331 331 329 327 326 324 322 319 316 312 307 304 300 295 292 289 287 285 284
302 311 318 322 332 340 341 340 339 339 340 340 340 342 343 344 344 344 344 345 344 341 338 337 334 333 332 331 330 328 326 323 320 316 312 308 304 299 295 293 291 288 286
314 322 327 329 335 341 342 341 340 339 340 341 342 344 344 344 346 347 347 346 344 343 340 337 335 332 331 330 329 327 324 322 320 317 314 311 307 302 298 295 292 290 288
321 327 330 334 337 337 338 340 340 339 341 342 343 344 343 343 346 347 346 346 344 342 339 336 335 333 331 329 327 325 323 321 318 315 313 312 308 304 301 298 295 291 289
325 329 332 335 338 339 339 340 342 342 342 343 343 343 344 343 345 346 346 345 343 342 340 337 335 333 332 330 328 325 323 322 320 316 314 313 310 307 301 298 297 294 289
327 328 334 339 341 342 340 340 344 344 343 342 343 343 343 343 343 344 344 343 342 341 341 339 336 334 332 331 329 327 326 324 321 318 315 312 310 308 305 301 299 297 293
333 331 336 341 344 342 341 339 341 343 343 343 342 342 342 342 342 343 342 340 339 339 341 340 339 337 334 332 331 330 328 326 323 320 318 314 311 309 308 306 304 301 297
333 335 339 343 341 339 339 340 342 343 344 343 341 339 339 340 342 342 341 340 341 341 341 341 340 337 334 332 332 331 330 328 326 323 321 317 314 312 310 308 305 302 299
329 328 331 338 341 339 339 341 342 341 342 341 339 338 338 339 340 341 342 342 341 341 341 341 339 337 335 332 332 331 331 329 327 325 323 320 317 314 312 310 306 303 300
333 332 328 333 342 344 343 343 343 344 345 344 342 341 340 341 342 342 342 342 342 342 342 341 340 339 337 335 333 331 329 328 327 325 323 321 318 315 313 311 308 305 303
335 334 330 330 338 345 345 345 345 346 347 347 345 344 344 344 343 343 344 344 343 342 342 341 340 339 337 336 335 333 332 330 328 325 324 323 320 317 315 313 309 305 302
332 333 331 332 335 342 346 346 344 346 349 348 347 346 344 343 341 341 342 342 342 342 342 341 339 338 338 338 336 334 332 331 330 327 324 323 321 320 317 314 312 310 307